Stations météo

réclame
Mon MeteoGroup
Gunnarn A, Suède (2126): Température de l'air & dewpoint: 17.04.2018 03:00:00 - 23.04.2018 03:00:00 (CEST)Gunnarn A, Suède (2126): Vitesse du vent & gusts: 17.04.2018 03:00:00 - 23.04.2018 03:00:00 (CEST)Gunnarn A, Suède (2126): Direction du vent: 17.04.2018 03:00:00 - 23.04.2018 03:00:00 (CEST)Gunnarn A, Suède (2126): reduced air pressure: 17.04.2018 03:00:00 - 23.04.2018 03:00:00 (CEST)Gunnarn A, Suède (2126): visibility: 17.04.2018 03:00:00 - 23.04.2018 03:00:00 (CEST)Gunnarn A, Suède (2126): Quantités de précipitations: 17.04.2018 03:00:00 - 23.04.2018 03:00:00 (CEST)
Date & Time tt [°C] td [°C] ff [km/h] ff [knt] fx [km/h] fx [knt] dd ppp [hPa] vv [km] rr [mm]
23.04.2018 03:00:00 -1,2 -2,2 0 0 5 3 N 1011,6 50 0,0
23.04.2018 02:00:00 -1,0 -2,1 4 2 5 3 S 1012,2 50 0,0
23.04.2018 01:00:00 -0,1 -1,7 2 1 4 2 SSE 1012,6 50 0,0
23.04.2018 00:00:00 0,9 -1,5 2 1 4 2 ENE 1012,9 50 0,0
22.04.2018 23:00:00 1,7 -1,0 2 1 4 2 ENE 1012,9 50 0,0
22.04.2018 22:00:00 2,2 -1,8 0 0 3 2 N 1013,1 50 0,0
22.04.2018 21:00:00 2,8 -0,8 0 0 4 2 N 1013,1 50 0,0
22.04.2018 20:00:00 5,7 -1,2 0 0 8 5 N 1012,5 50 0,0
22.04.2018 19:00:00 6,9 -1,0 3 2 13 7 W 1012,5 50 0,0
22.04.2018 18:00:00 7,0 -0,5 5 3 16 9 W 1012,5 50 0,0
22.04.2018 17:00:00 7,1 -1,3 9 5 18 10 W 1012,7 50 0,0
22.04.2018 16:00:00 8,5 -1,6 8 5 18 10 W 1012,5 44 0,0
22.04.2018 15:00:00 8,8 -1,1 9 5 21 11 NNW 1012,7 50 0,0
22.04.2018 14:00:00 8,9 -1,0 9 5 21 11 N 1012,6 50 0,0
22.04.2018 13:00:00 8,2 -0,6 3 2 9 5 NE 1012,7 50 0,0
22.04.2018 12:00:00 8,7 -0,1 4 2 8 4 WNW 1012,6 50 0,0
22.04.2018 11:00:00 6,8 0,7 4 2 9 5 NW 1012,7 50 0,0
22.04.2018 10:00:00 6,3 1,4 0 0 9 5 N 1012,8 49 0,0
22.04.2018 09:00:00 3,1 0,7 4 2 9 5 S 1013,1 50 0,0
22.04.2018 08:00:00 1,9 0,3 5 3 8 5 S 1012,7 50 0,0
22.04.2018 07:00:00 1,3 0,4 3 2 5 3 S 1012,1 50 0,0
22.04.2018 06:00:00 0,6 0,2 3 2 8 4 SSW 1011,6 50 0,0
22.04.2018 05:00:00 0,8 0,1 0 0 14 8 N 1011,1 50 0,0
22.04.2018 04:00:00 1,3 0,3 5 3 16 8 NNE 1010,5 50 0,0
22.04.2018 03:00:00 1,9 1,0 5 3 16 8 NNE 1009,7 50 0,0
22.04.2018 02:00:00 1,7 1,0 7 4 16 8 NW 1008,7 50 0,0
22.04.2018 01:00:00 1,7 1,1 7 4 16 8 WNW 1007,6 50 0,0
22.04.2018 00:00:00 2,1 1,5 8 5 14 8 NW 1006,4 50 0,0
21.04.2018 23:00:00 1,8 1,4 10 5 19 11 WNW 1005,4 50 0,0
21.04.2018 22:00:00 2,2 1,6 9 5 21 12 WNW 1004,6 50 0,0
21.04.2018 21:00:00 2,4 2,0 9 5 21 12 WNW 1004,0 50 0,2
21.04.2018 20:00:00 3,3 2,4 9 5 16 9 W 1003,2 15 0,5
21.04.2018 19:00:00 3,8 1,2 5 3 19 11 WNW 1002,4 35 0,0
21.04.2018 18:00:00 4,5 1,0 8 4 34 19 WNW 1001,7 50 0,0
21.04.2018 17:00:00 4,9 0,8 11 6 37 20 W 1001,4 50 0,0
21.04.2018 16:00:00 5,7 0,1 18 10 37 20 WNW 1000,8 50 0,0
21.04.2018 15:00:00 6,7 -0,5 13 7 25 13 WSW 1000,3 50 0,0
21.04.2018 14:00:00 5,7 0,1 11 6 34 19 WSW 1000,4 50 0,0
21.04.2018 13:00:00 4,4 0,9 12 7 34 19 WSW 1000,6 50 0,0
21.04.2018 12:00:00 5,2 -0,2 17 9 29 16 WSW 1000,1 50 0,0
21.04.2018 11:00:00 4,8 0,2 11 6 29 16 W 999,8 50 0,0
21.04.2018 10:00:00 4,9 -0,3 10 5 27 15 W 999,0 50 0,0
21.04.2018 09:00:00 4,7 -0,1 14 8 25 13 W 998,7 50 0,0
21.04.2018 08:00:00 4,3 0,6 11 6 24 13 W 998,7 50 0,0
21.04.2018 07:00:00 3,9 0,9 12 7 24 13 WSW 998,7 50 0,0
21.04.2018 06:00:00 3,9 1,1 13 7 24 13 SW 999,1 50 0,0
21.04.2018 05:00:00 3,4 0,6 8 4 29 16 WSW 999,6 50 0,0
21.04.2018 04:00:00 4,3 0,4 9 5 30 16 WSW 1000,2 50 0,0
21.04.2018 03:00:00 4,4 0,5 18 10 30 16 W 1000,7 50 0,0
21.04.2018 02:00:00 1,7 0,2 3 2 8 4 NE 1001,7 50 0,0
21.04.2018 01:00:00 1,8 0,2 4 2 10 5 ENE 1002,4 50 0,0
21.04.2018 00:00:00 1,6 -0,5 3 2 13 7 NNE 1002,9 50 0,0
20.04.2018 23:00:00 1,9 -0,2 3 1 13 7 E 1003,4 50 0,0
20.04.2018 22:00:00 1,9 -0,5 9 5 12 7 ENE 1004,3 50 0,0
20.04.2018 21:00:00 4,0 0,3 4 2 20 11 SW 1004,9 50 0,0
20.04.2018 20:00:00 6,9 0,8 9 5 25 14 WSW 1005,4 50 0,0
20.04.2018 19:00:00 7,1 0,5 10 5 25 14 WSW 1006,2 50 0,0
20.04.2018 18:00:00 7,8 -0,4 10 5 22 12 W 1006,7 50 0,0
20.04.2018 17:00:00 8,3 -0,5 13 7 22 12 WNW 1007,7 50 0,0
20.04.2018 16:00:00 8,3 -0,2 11 6 23 12 W 1008,7 50 0,0
20.04.2018 15:00:00 8,9 0,1 14 8 23 12 WNW 1009,6 50 0,0
20.04.2018 14:00:00 9,6 0,7 12 7 21 12 NW 1010,0 50 0,0
20.04.2018 13:00:00 9,6 1,0 5 3 22 12 NNW 1010,8 50 0,0
20.04.2018 12:00:00 8,7 1,1 13 7 22 12 NW 1011,3 50 0,0
20.04.2018 11:00:00 7,7 2,0 13 7 21 12 NW 1011,9 50 0,0
20.04.2018 10:00:00 8,6 4,0 5 3 12 7 N 1012,1 46 0,0
20.04.2018 09:00:00 6,6 4,1 5 3 13 7 N 1012,7 41 0,0
20.04.2018 08:00:00 3,7 3,0 6 4 13 7 WNW 1013,5 37 0,0
20.04.2018 07:00:00 2,5 2,4 4 2 9 5 WNW 1013,9 23 0,0
20.04.2018 06:00:00 1,5 1,4 2 1 6 3 ENE 1014,3 17 0,0
20.04.2018 05:00:00 1,6 1,5 2 1 12 6 E 1014,9 9 0,0
20.04.2018 04:00:00 2,0 1,9 3 2 12 6 NNE 1015,5 15 0,0
20.04.2018 03:00:00 2,4 2,3 5 3 10 5 E 1015,6 15 0,0
20.04.2018 02:00:00 2,8 2,7 3 1 10 6 ENE 1017,1 22 0,8
20.04.2018 01:00:00 2,5 1,5 3 2 12 7 WNW 1017,9 8 0,6
20.04.2018 00:00:00 6,0 1,7 7 4 12 7 E 1017,7 47 0,0
19.04.2018 23:00:00 2,8 0,0 4 2 9 5 SSE 1019,3 50 0,0
19.04.2018 22:00:00 2,6 -0,3 4 2 8 5 E 1020,2 50 0,0
19.04.2018 21:00:00 3,4 -0,1 5 3 8 5 SSE 1020,9 50 0,0
19.04.2018 20:00:00 5,6 1,0 3 2 5 3 SSE 1021,3 50 0,0
19.04.2018 19:00:00 6,5 0,8 2 1 6 3 S 1021,9 50 0,0
19.04.2018 18:00:00 11,8 1,4 0 0 13 7 N 1021,8 50 0,0
19.04.2018 17:00:00 10,1 1,2 4 2 16 9 NW 1022,8 50 0,0
19.04.2018 16:00:00 9,2 0,9 9 5 20 11 NW 1023,5 45 0,0
19.04.2018 15:00:00 10,4 1,2 11 6 22 12 NNW 1024,0 49 0,0
19.04.2018 14:00:00 9,4 1,6 13 7 23 12 WNW 1024,4 49 0,0
19.04.2018 13:00:00 8,5 1,2 12 7 28 15 WNW 1024,8 50 0,0
19.04.2018 12:00:00 8,1 1,3 15 8 30 16 WNW 1024,7 40 0,0
19.04.2018 11:00:00 7,7 1,7 18 10 31 17 WNW 1024,6 47 0,0
19.04.2018 10:00:00 7,2 1,9 16 9 31 17 WNW 1024,6 48 0,0
19.04.2018 09:00:00 7,1 2,0 9 5 22 12 NW 1024,2 49 0,0
19.04.2018 08:00:00 5,4 1,9 14 8 21 11 WNW 1024,1 50 0,0
19.04.2018 07:00:00 4,1 1,6 13 7 20 11 W 1024,0 50 0,0
19.04.2018 06:00:00 3,8 1,3 9 5 20 11 WNW 1023,8 50 0,0
19.04.2018 05:00:00 3,6 1,3 9 5 23 12 WNW 1023,3 50 0,0
19.04.2018 04:00:00 3,9 1,4 10 5 24 13 WNW 1023,1 50 0,0
19.04.2018 03:00:00 4,0 1,4 13 7 31 17 WNW 1022,5 50 0,0
19.04.2018 02:00:00 4,4 1,4 15 8 31 17 WNW 1021,9 50 0,0
19.04.2018 01:00:00 4,2 1,2 18 10 29 16 WNW 1021,5 50 0,0
19.04.2018 00:00:00 4,0 1,0 15 8 29 16 WNW 1021,2 50 0,0
18.04.2018 23:00:00 4,4 1,1 16 9 29 16 WNW 1020,6 50 0,0
18.04.2018 22:00:00 4,8 0,9 15 8 23 12 WNW 1020,0 50 0,0
18.04.2018 21:00:00 5,2 0,8 14 7 21 11 WNW 1019,5 50 0,0
18.04.2018 20:00:00 4,5 2,8 3 2 19 10 NNE 1019,0 50 0,0
18.04.2018 19:00:00 5,8 2,3 4 2 26 14 WSW 1018,8 42 0,0
18.04.2018 18:00:00 6,2 1,7 11 6 26 14 W 1018,5 31 0,0
18.04.2018 17:00:00 7,9 1,5 14 7 21 11 WSW 1017,7 50 0,0
18.04.2018 16:00:00 8,6 -0,2 6 3 26 14 W 1017,5 50 0,0
18.04.2018 15:00:00 8,4 -1,2 11 6 26 14 WSW 1017,5 50 0,0
18.04.2018 14:00:00 9,1 -1,6 16 9 24 13 WSW 1017,2 50 0,0
18.04.2018 13:00:00 11,6 -3,0 5 3 16 9 S 1016,6 46 0,0
18.04.2018 12:00:00 9,6 -2,7 6 4 16 9 S 1016,7 50 0,0
18.04.2018 11:00:00 5,6 -3,2 3 2 9 5 SW 1017,6 50 0,0
18.04.2018 10:00:00 4,1 -3,4 4 2 9 5 WNW 1017,9 50 0,0
18.04.2018 09:00:00 2,6 -3,9 4 2 8 5 SSW 1018,1 50 0,0
18.04.2018 08:00:00 -2,8 -5,6 0 0 5 3 N 1018,8 50 0,0
18.04.2018 07:00:00 -4,2 -5,3 0 0 4 2 N 1019,3 50 0,0
18.04.2018 06:00:00 -6,1 -6,4 2 1 4 2 NE 1019,5 28 0,0
18.04.2018 05:00:00 -7,6 -8,3 0 0 4 2 N 1019,8 33 0,0
18.04.2018 04:00:00 -5,6 -6,1 0 0 4 2 N 1019,8 50 0,0
18.04.2018 03:00:00 -5,3 -6,5 0 0 4 2 N 1019,8 50 0,0
18.04.2018 02:00:00 -5,1 -6,1 0 0 3 2 N 1019,7 50 0,0
18.04.2018 01:00:00 -4,0 -5,0 0 0 4 2 N 1019,8 50 0,0
18.04.2018 00:00:00 -3,3 -5,0 0 0 6 3 N 1019,7 50 0,0
17.04.2018 23:00:00 -2,0 -3,6 3 2 6 3 W 1019,6 50 0,0
17.04.2018 22:00:00 0,0 -3,0 0 0 3 1 N 1019,1 50 0,0
17.04.2018 21:00:00 2,2 -2,7 0 0 5 3 N 1018,8 50 0,0
17.04.2018 20:00:00 6,4 -2,5 0 0 8 5 N 1017,8 50 0,0
17.04.2018 19:00:00 9,3 -3,0 5 3 9 5 WNW 1017,1 50 0,0
17.04.2018 18:00:00 10,0 -3,0 5 3 11 6 W 1017,1 50 0,0
17.04.2018 17:00:00 12,2 -4,4 6 3 15 8 NNW 1016,7 50 0,0
17.04.2018 16:00:00 13,6 -5,1 3 2 15 8 WNW 1016,5 45 0,0
17.04.2018 15:00:00 11,8 -4,4 6 3 15 8 NNW 1016,7 48 0,0
17.04.2018 14:00:00 11,0 -5,9 4 2 14 8 NNE 1017,0 50 0,0
17.04.2018 13:00:00 10,4 -5,2 7 4 10 6 WSW 1017,1 45 0,0
17.04.2018 12:00:00 11,3 -4,8 2 1 10 5 WSW 1016,9 50 0,0
17.04.2018 11:00:00 8,4 -3,2 4 2 11 6 W 1017,2 50 0,0
17.04.2018 10:00:00 4,8 -3,7 7 4 13 7 NW 1017,5 50 0,0
17.04.2018 09:00:00 2,3 -3,2 6 3 18 10 NW 1017,5 50 0,0
17.04.2018 08:00:00 0,7 -4,3 9 5 19 10 NW 1017,2 50 0,0
17.04.2018 07:00:00 -0,5 -4,6 13 7 20 11 NNW 1016,9 50 0,0
17.04.2018 06:00:00 -0,7 -4,9 13 7 20 11 NW 1016,6 50 0,0
17.04.2018 05:00:00 -2,9 -5,7 6 3 18 10 NNW 1016,5 50 0,0
17.04.2018 04:00:00 -2,9 -5,4 9 5 18 10 WNW 1016,6 50 0,0
17.04.2018 03:00:00 -4,6 -6,7 3 2 9 5 NNW 1016,5 50 0,0

tt = Température de l'air
td = dewpoint
ff = Vitesse du vent
fx = gusts
dd = Direction du vent
ppp = reduced air pressure
vv = visibility
rr = Quantités de précipitations

stations d'obs. à proximité